Regional Weather Roundup
Issued by NWS Midland/Odessa, TX

Skip options and go directly to product.
Home | Oldest Version | Next Version | Current Version | All | Text Only | Save Text | Print | Product List | Glossary On

Skip product version selection by date and time.   
319
ASUS44 KMAF 050201
RWRMAF
MIDLAND AREA WEATHER ROUNDUP
NATIONAL WEATHER SERVICE MIDLAND TX
900 PM CDT MON MAY 04 2015

...IN SOUTHWEST TEXAS AND SOUTHEAST NEW MEXICO...

CITY           SKY/WX    TMP DP  RH WIND       PRES   REMARKS
ALPINE         CLEAR     68  58  69 SE12G17   29.92S
ANDREWS        MOCLDY    73  58  60 S17G30    29.88R
ARTESIA        MOCLDY    61  61 100 CALM      29.89R
BIG SPRING     CLOUDY    76  58  52 SE23G35   29.89S
CARLSBAD       RAIN      61  56  83 SE15      29.83F
DRYDEN           N/A     72  65  78 SE32G48   29.83S
FORT STOCKTON  CLOUDY    63  61  93 E23G33    29.83F
GUAD PASS      CLOUDY    58  54  86 NE38      29.90S
HOBBS          TSTM      66  63  88 S17       29.92R
MARFA          PTCLDY    66  57  72 E10       29.89S
MIDLAND AIRPK  CLOUDY    76  59  56 SE24G35   29.87R
MIDLAND INTL   CLOUDY    74  60  61 S26G32    29.87R
ODESSA         CLOUDY    73  58  59 S29G38    29.87R
PECOS          CLOUDY    72  62  70 SE24G36   29.76R
PRESIDIO       FAIR      90  29  11 S7        29.70S
SEMINOLE       CLOUDY    62  56  81 NE16      29.91S
SNYDER         DRIZZLE   68  60  74 E20G26    29.90F
WINK           TSTM      71  60  68 E9        29.84R
$$
...OTHER STATIONS IN TEXAS...

CITY           SKY/WX    TMP DP  RH WIND       PRES   REMARKS
ABILENE        CLOUDY    70  61  73 SW6       29.94R
AMARILLO       CLOUDY    60  55  83 E5        30.00S THUNDER
AUSTIN         MOCLDY    75  60  59 S13       30.00R
BROWNSVILLE    CLOUDY    77  70  79 E15       29.96S
CORPUS CHRISTI MOCLDY    76  68  76 SE17G25   29.99R
DALLAS FTW     MOCLDY    72  52  49 SE12      29.99R
DEL RIO        CLOUDY    73  67  81 SE12      29.88S
EL PASO        MOCLDY    73  50  44 N16       29.79R
HOUSTON INT    PTCLDY    72  59  63 S6        30.05R
LUBBOCK        TSTM      58  56  93 E10       30.00R
SAN ANGELO     CLOUDY    74  61  63 SE20G25   29.91F
SAN ANTONIO    MOCLDY    74  61  63 SE17G24   29.99R
WACO           CLEAR     72  57  59 SE9       29.99R
WICHITA FALLS  NOT AVBL
$$
...OTHER LOCATIONS IN NEW MEXICO...

CITY           SKY/WX    TMP DP  RH WIND       PRES   REMARKS
ALAMAGORDO     MOCLDY    66  48  52 NW17G31   29.86R
ALBUQUERQUE    RAIN      53  51  93 E14       29.95F
CANNON AFB     TSTM      54  52  94 NE12      29.98R
CLOVIS         CLOUDY    55  52  88 NE14      29.98F THUNDER
HOLLOMAN AFB   TSTM      70  54  56 NW16G54   29.84R
ROSWELL        MOCLDY    61  57  87 E6        29.87F
RUIDOSO        CLOUDY    54  46  76 NE3       30.01R
SANTA FE       LGT RAIN  52  46  80 NW5       30.01S
TRUTH OR CONSE PTCLDY    69  42  37 NE7       29.86R
TUCUMCARI      CLOUDY    58  53  84 SE7       29.95R
$$

USA.gov is the U.S. government's official web portal to all federal, state and local government web resources and services.